Voltar ao catálogo

FENGYUN 1C DEB

LostSSO
NORAD 36155·DEBRIS·🇨🇳 China

Lançado May 10, 1999 de Taiyuan Satellite Launch Center

Loading…

Próximas Passagens (próximas 24 horas)

TLE

ObsoletoSource: Space-Track

Época: Feb 21, 2021, 22:42 UTC

1 36155U 99025DSC 21052.94639350  .00001143  00000-0  58184-3 0  9992
2 36155  98.9838  98.9301 0023540  39.3634 320.9246 14.17731192698464

Acompanhe FENGYUN 1C DEB em tempo real com AllMySat

Download on the App Store